Year,Month,Day,Hour,Minute,Value (Times are PST for insolation in W/m^2)
2007,10,02,00,00,0.00
2007,10,02,00,01,0.00
2007,10,02,00,02,0.00
2007,10,02,00,03,0.00
2007,10,02,00,04,0.00
2007,10,02,00,05,0.00
2007,10,02,00,06,0.00
2007,10,02,00,07,0.00
2007,10,02,00,08,0.00
2007,10,02,00,09,0.00
2007,10,02,00,10,0.00
2007,10,02,00,11,0.00
2007,10,02,00,12,0.00
2007,10,02,00,13,0.00
2007,10,02,00,14,0.00
2007,10,02,00,15,0.00
2007,10,02,00,16,0.00
2007,10,02,00,17,0.00
2007,10,02,00,18,0.00
2007,10,02,00,19,0.00
2007,10,02,00,20,0.00
2007,10,02,00,21,0.00
2007,10,02,00,22,0.00
2007,10,02,00,23,0.00
2007,10,02,00,24,0.00
2007,10,02,00,25,0.00
2007,10,02,00,26,0.00
2007,10,02,00,27,0.00
2007,10,02,00,28,0.00
2007,10,02,00,29,0.00
2007,10,02,00,30,0.00
2007,10,02,00,31,0.00
2007,10,02,00,32,0.00
2007,10,02,00,33,0.00
2007,10,02,00,34,0.00
2007,10,02,00,35,0.00
2007,10,02,00,36,0.00
2007,10,02,00,37,0.00
2007,10,02,00,38,0.00
2007,10,02,00,39,0.00
2007,10,02,00,40,0.00
2007,10,02,00,41,0.00
2007,10,02,00,42,0.00
2007,10,02,00,43,0.00
2007,10,02,00,44,0.00
2007,10,02,00,45,0.00
2007,10,02,00,46,0.00
2007,10,02,00,47,0.00
2007,10,02,00,48,0.00
2007,10,02,00,49,0.00
2007,10,02,00,50,0.00
2007,10,02,00,51,0.00
2007,10,02,00,52,0.00
2007,10,02,00,53,0.00
2007,10,02,00,54,0.00
2007,10,02,00,55,0.00
2007,10,02,00,56,0.00
2007,10,02,00,57,0.00
2007,10,02,00,58,0.00
2007,10,02,00,59,0.00
2007,10,02,01,00,0.00
2007,10,02,01,01,0.00
2007,10,02,01,02,0.00
2007,10,02,01,03,0.00
2007,10,02,01,04,0.00
2007,10,02,01,05,0.00
2007,10,02,01,06,0.00
2007,10,02,01,07,0.00
2007,10,02,01,08,0.00
2007,10,02,01,09,0.00
2007,10,02,01,10,0.00
2007,10,02,01,11,0.00
2007,10,02,01,12,0.00
2007,10,02,01,13,0.00
2007,10,02,01,14,0.00
2007,10,02,01,15,0.00
2007,10,02,01,16,0.00
2007,10,02,01,17,0.00
2007,10,02,01,18,0.00
2007,10,02,01,19,0.00
2007,10,02,01,20,0.00
2007,10,02,01,21,0.00
2007,10,02,01,22,0.00
2007,10,02,01,23,0.00
2007,10,02,01,24,0.00
2007,10,02,01,25,0.00
2007,10,02,01,26,0.00
2007,10,02,01,27,0.00
2007,10,02,01,28,0.00
2007,10,02,01,29,0.00
2007,10,02,01,30,0.00
2007,10,02,01,31,0.00
2007,10,02,01,32,0.00
2007,10,02,01,33,0.00
2007,10,02,01,34,0.00
2007,10,02,01,35,0.00
2007,10,02,01,36,0.00
2007,10,02,01,37,0.00
2007,10,02,01,38,0.00
2007,10,02,01,39,0.00
2007,10,02,01,40,0.00
2007,10,02,01,41,0.00
2007,10,02,01,42,0.00
2007,10,02,01,43,0.00
2007,10,02,01,44,0.00
2007,10,02,01,45,0.00
2007,10,02,01,46,0.00
2007,10,02,01,47,0.00
2007,10,02,01,48,0.00
2007,10,02,01,49,0.00
2007,10,02,01,50,0.00
2007,10,02,01,51,0.00
2007,10,02,01,52,0.00
2007,10,02,01,53,0.00
2007,10,02,01,54,0.00
2007,10,02,01,55,0.00
2007,10,02,01,56,0.00
2007,10,02,01,57,0.00
2007,10,02,01,58,0.00
2007,10,02,01,59,0.00
2007,10,02,02,00,0.00
2007,10,02,02,01,0.00
2007,10,02,02,02,0.00
2007,10,02,02,03,0.00
2007,10,02,02,04,0.00
2007,10,02,02,05,0.00
2007,10,02,02,06,0.00
2007,10,02,02,07,0.00
2007,10,02,02,08,0.00
2007,10,02,02,09,0.00
2007,10,02,02,10,0.00
2007,10,02,02,11,0.00
2007,10,02,02,12,0.00
2007,10,02,02,13,0.00
2007,10,02,02,14,0.00
2007,10,02,02,15,0.00
2007,10,02,02,16,0.00
2007,10,02,02,17,0.00
2007,10,02,02,18,0.00
2007,10,02,02,19,0.00
2007,10,02,02,20,0.00
2007,10,02,02,21,0.00
2007,10,02,02,22,0.00
2007,10,02,02,23,0.00
2007,10,02,02,24,0.00
2007,10,02,02,25,0.00
2007,10,02,02,26,0.00
2007,10,02,02,27,0.00
2007,10,02,02,28,0.00
2007,10,02,02,29,0.00
2007,10,02,02,30,0.00
2007,10,02,02,31,0.00
2007,10,02,02,32,0.00
2007,10,02,02,33,0.00
2007,10,02,02,34,0.00
2007,10,02,02,35,0.00
2007,10,02,02,36,0.00
2007,10,02,02,37,0.00
2007,10,02,02,38,0.00
2007,10,02,02,39,0.00
2007,10,02,02,40,0.00
2007,10,02,02,41,0.00
2007,10,02,02,42,0.00
2007,10,02,02,43,0.00
2007,10,02,02,44,0.00
2007,10,02,02,45,0.00
2007,10,02,02,46,0.00
2007,10,02,02,47,0.00
2007,10,02,02,48,0.00
2007,10,02,02,49,0.00
2007,10,02,02,50,0.00
2007,10,02,02,51,0.00
2007,10,02,02,52,0.00
2007,10,02,02,53,0.00
2007,10,02,02,54,0.00
2007,10,02,02,55,0.00
2007,10,02,02,56,0.00
2007,10,02,02,57,0.00
2007,10,02,02,58,0.00
2007,10,02,02,59,0.00
2007,10,02,03,00,0.00
2007,10,02,03,01,0.00
2007,10,02,03,02,0.00
2007,10,02,03,03,0.00
2007,10,02,03,04,0.00
2007,10,02,03,05,0.00
2007,10,02,03,06,0.00
2007,10,02,03,07,0.00
2007,10,02,03,08,0.00
2007,10,02,03,09,0.00
2007,10,02,03,10,0.00
2007,10,02,03,11,0.00
2007,10,02,03,12,0.00
2007,10,02,03,13,0.00
2007,10,02,03,14,0.00
2007,10,02,03,15,0.00
2007,10,02,03,16,0.00
2007,10,02,03,17,0.00
2007,10,02,03,18,0.00
2007,10,02,03,19,0.00
2007,10,02,03,20,0.00
2007,10,02,03,21,0.00
2007,10,02,03,22,0.00
2007,10,02,03,23,0.00
2007,10,02,03,24,0.00
2007,10,02,03,25,0.00
2007,10,02,03,26,0.00
2007,10,02,03,27,0.00
2007,10,02,03,28,0.00
2007,10,02,03,29,0.00
2007,10,02,03,30,0.00
2007,10,02,03,31,0.00
2007,10,02,03,32,0.00
2007,10,02,03,33,0.00
2007,10,02,03,34,0.00
2007,10,02,03,35,0.00
2007,10,02,03,36,0.00
2007,10,02,03,37,0.00
2007,10,02,03,38,0.00
2007,10,02,03,39,0.00
2007,10,02,03,40,0.00
2007,10,02,03,41,0.00
2007,10,02,03,42,0.00
2007,10,02,03,43,0.00
2007,10,02,03,44,0.00
2007,10,02,03,45,0.00
2007,10,02,03,46,0.00
2007,10,02,03,47,0.00
2007,10,02,03,48,0.00
2007,10,02,03,49,0.00
2007,10,02,03,50,0.00
2007,10,02,03,51,0.00
2007,10,02,03,52,0.00
2007,10,02,03,53,0.00
2007,10,02,03,54,0.00
2007,10,02,03,55,0.00
2007,10,02,03,56,0.00
2007,10,02,03,57,0.00
2007,10,02,03,58,0.00
2007,10,02,03,59,0.00
2007,10,02,04,00,0.00
2007,10,02,04,01,0.00
2007,10,02,04,02,0.00
2007,10,02,04,03,0.00
2007,10,02,04,04,0.00
2007,10,02,04,05,0.00
2007,10,02,04,06,0.00
2007,10,02,04,07,0.00
2007,10,02,04,08,0.00
2007,10,02,04,09,0.00
2007,10,02,04,10,0.00
2007,10,02,04,11,0.00
2007,10,02,04,12,0.00
2007,10,02,04,13,0.00
2007,10,02,04,14,0.00
2007,10,02,04,15,0.00
2007,10,02,04,16,0.00
2007,10,02,04,17,0.00
2007,10,02,04,18,0.00
2007,10,02,04,19,0.00
2007,10,02,04,20,0.00
2007,10,02,04,21,0.00
2007,10,02,04,22,0.00
2007,10,02,04,23,0.00
2007,10,02,04,24,0.00
2007,10,02,04,25,0.00
2007,10,02,04,26,0.00
2007,10,02,04,27,0.00
2007,10,02,04,28,0.00
2007,10,02,04,29,0.00
2007,10,02,04,30,0.00
2007,10,02,04,31,0.00
2007,10,02,04,32,0.00
2007,10,02,04,33,0.00
2007,10,02,04,34,0.00
2007,10,02,04,35,0.00
2007,10,02,04,36,0.00
2007,10,02,04,37,0.00
2007,10,02,04,38,0.00
2007,10,02,04,39,0.00
2007,10,02,04,40,0.00
2007,10,02,04,41,0.00
2007,10,02,04,42,0.00
2007,10,02,04,43,0.00
2007,10,02,04,44,0.00
2007,10,02,04,45,0.00
2007,10,02,04,46,0.00
2007,10,02,04,47,0.00
2007,10,02,04,48,0.00
2007,10,02,04,49,0.00
2007,10,02,04,50,0.00
2007,10,02,04,51,0.00
2007,10,02,04,52,0.00
2007,10,02,04,53,0.00
2007,10,02,04,54,0.00
2007,10,02,04,55,0.00
2007,10,02,04,56,0.00
2007,10,02,04,57,0.00
2007,10,02,04,58,0.00
2007,10,02,04,59,0.00
2007,10,02,05,00,0.00
2007,10,02,05,01,0.00
2007,10,02,05,02,0.00
2007,10,02,05,03,0.00
2007,10,02,05,04,0.00
2007,10,02,05,05,0.00
2007,10,02,05,06,0.00
2007,10,02,05,07,0.00
2007,10,02,05,08,0.00
2007,10,02,05,09,0.00
2007,10,02,05,10,0.00
2007,10,02,05,11,0.00
2007,10,02,05,12,0.00
2007,10,02,05,13,0.00
2007,10,02,05,14,0.00
2007,10,02,05,15,0.00
2007,10,02,05,16,0.00
2007,10,02,05,17,0.00
2007,10,02,05,18,0.00
2007,10,02,05,19,0.00
2007,10,02,05,20,0.00
2007,10,02,05,21,0.00
2007,10,02,05,22,0.00
2007,10,02,05,23,0.00
2007,10,02,05,24,0.00
2007,10,02,05,25,0.00
2007,10,02,05,26,0.00
2007,10,02,05,27,0.00
2007,10,02,05,28,0.00
2007,10,02,05,29,0.00
2007,10,02,05,30,0.00
2007,10,02,05,31,0.00
2007,10,02,05,32,0.00
2007,10,02,05,33,0.00
2007,10,02,05,34,0.00
2007,10,02,05,35,0.00
2007,10,02,05,36,0.00
2007,10,02,05,37,0.00
2007,10,02,05,38,0.00
2007,10,02,05,39,0.00
2007,10,02,05,40,0.00
2007,10,02,05,41,0.00
2007,10,02,05,42,0.00
2007,10,02,05,43,0.00
2007,10,02,05,44,0.00
2007,10,02,05,45,0.00
2007,10,02,05,46,0.00
2007,10,02,05,47,0.00
2007,10,02,05,48,0.00
2007,10,02,05,49,0.00
2007,10,02,05,50,0.00
2007,10,02,05,51,0.00
2007,10,02,05,52,0.00
2007,10,02,05,53,0.00
2007,10,02,05,54,0.00
2007,10,02,05,55,0.00
2007,10,02,05,56,0.00
2007,10,02,05,57,0.00
2007,10,02,05,58,0.00
2007,10,02,05,59,0.00
2007,10,02,06,00,0.00
2007,10,02,06,01,0.00
2007,10,02,06,02,0.00
2007,10,02,06,03,0.00
2007,10,02,06,04,0.00
2007,10,02,06,05,0.00
2007,10,02,06,06,0.00
2007,10,02,06,07,0.00
2007,10,02,06,08,0.00
2007,10,02,06,09,0.00
2007,10,02,06,10,0.00
2007,10,02,06,11,0.00
2007,10,02,06,12,0.00
2007,10,02,06,13,0.00
2007,10,02,06,14,0.00
2007,10,02,06,15,0.00
2007,10,02,06,16,0.00
2007,10,02,06,17,0.00
2007,10,02,06,18,0.00
2007,10,02,06,19,0.00
2007,10,02,06,20,0.00
2007,10,02,06,21,0.00
2007,10,02,06,22,0.00
2007,10,02,06,23,0.00
2007,10,02,06,24,0.00
2007,10,02,06,25,0.00
2007,10,02,06,26,0.00
2007,10,02,06,27,0.00
2007,10,02,06,28,0.00
2007,10,02,06,29,0.00
2007,10,02,06,30,0.00
2007,10,02,06,31,0.00
2007,10,02,06,32,0.00
2007,10,02,06,33,0.00
2007,10,02,06,34,0.00
2007,10,02,06,35,0.00
2007,10,02,06,36,0.00
2007,10,02,06,37,0.00
2007,10,02,06,38,0.00
2007,10,02,06,39,0.00
2007,10,02,06,40,0.00
2007,10,02,06,41,0.00
2007,10,02,06,42,0.00
2007,10,02,06,43,0.00
2007,10,02,06,44,0.00
2007,10,02,06,45,0.00
2007,10,02,06,46,0.00
2007,10,02,06,47,0.00
2007,10,02,06,48,0.00
2007,10,02,06,49,0.00
2007,10,02,06,50,0.00
2007,10,02,06,51,0.00
2007,10,02,06,52,0.00
2007,10,02,06,53,0.00
2007,10,02,06,54,0.00
2007,10,02,06,55,0.00
2007,10,02,06,56,0.00
2007,10,02,06,57,0.00
2007,10,02,06,58,0.00
2007,10,02,06,59,0.00
2007,10,02,07,00,0.00
2007,10,02,07,01,0.00
2007,10,02,07,02,0.00
2007,10,02,07,03,0.00
2007,10,02,07,04,0.00
2007,10,02,07,05,0.00
2007,10,02,07,06,0.00
2007,10,02,07,07,0.00
2007,10,02,07,08,0.00
2007,10,02,07,09,0.00
2007,10,02,07,10,0.00
2007,10,02,07,11,0.00
2007,10,02,07,12,0.00
2007,10,02,07,13,0.00
2007,10,02,07,14,0.00
2007,10,02,07,15,0.00
2007,10,02,07,16,0.00
2007,10,02,07,17,0.00
2007,10,02,07,18,0.00
2007,10,02,07,19,0.00
2007,10,02,07,20,0.00
2007,10,02,07,21,0.00
2007,10,02,07,22,0.00
2007,10,02,07,23,0.00
2007,10,02,07,24,0.00
2007,10,02,07,25,0.00
2007,10,02,07,26,0.00
2007,10,02,07,27,0.00
2007,10,02,07,28,0.00
2007,10,02,07,29,0.00
2007,10,02,07,30,0.00
2007,10,02,07,31,0.00
2007,10,02,07,32,0.00
2007,10,02,07,33,0.00
2007,10,02,07,34,0.00
2007,10,02,07,35,0.00
2007,10,02,07,36,0.00
2007,10,02,07,37,0.00
2007,10,02,07,38,0.00
2007,10,02,07,39,1.50
2007,10,02,07,40,5.00
2007,10,02,07,41,5.00
2007,10,02,07,42,6.60
2007,10,02,07,43,7.00
2007,10,02,07,44,7.00
2007,10,02,07,45,7.00
2007,10,02,07,46,7.00
2007,10,02,07,47,7.00
2007,10,02,07,48,7.00
2007,10,02,07,49,7.00
2007,10,02,07,50,7.00
2007,10,02,07,51,7.00
2007,10,02,07,52,9.20
2007,10,02,07,53,11.70
2007,10,02,07,54,12.00
2007,10,02,07,55,14.00
2007,10,02,07,56,14.40
2007,10,02,07,57,16.80
2007,10,02,07,58,18.50
2007,10,02,07,59,20.50
2007,10,02,08,00,21.00
2007,10,02,08,01,23.10
2007,10,02,08,02,25.30
2007,10,02,08,03,26.00
2007,10,02,08,04,27.10
2007,10,02,08,05,29.40
2007,10,02,08,06,30.00
2007,10,02,08,07,30.20
2007,10,02,08,08,32.00
2007,10,02,08,09,31.10
2007,10,02,08,10,29.00
2007,10,02,08,11,26.60
2007,10,02,08,12,28.00
2007,10,02,08,13,30.40
2007,10,02,08,14,34.20
2007,10,02,08,15,37.90
2007,10,02,08,16,39.00
2007,10,02,08,17,39.80
2007,10,02,08,18,42.00
2007,10,02,08,19,44.30
2007,10,02,08,20,45.30
2007,10,02,08,21,42.10
2007,10,02,08,22,37.20
2007,10,02,08,23,32.80
2007,10,02,08,24,32.00
2007,10,02,08,25,26.00
2007,10,02,08,26,26.70
2007,10,02,08,27,30.10
2007,10,02,08,28,34.10
2007,10,02,08,29,36.50
2007,10,02,08,30,37.00
2007,10,02,08,31,37.00
2007,10,02,08,32,37.70
2007,10,02,08,33,39.50
2007,10,02,08,34,40.00
2007,10,02,08,35,41.60
2007,10,02,08,36,44.00
2007,10,02,08,37,43.50
2007,10,02,08,38,41.30
2007,10,02,08,39,39.40
2007,10,02,08,40,37.50
2007,10,02,08,41,37.00
2007,10,02,08,42,36.80
2007,10,02,08,43,35.00
2007,10,02,08,44,36.60
2007,10,02,08,45,40.80
2007,10,02,08,46,42.00
2007,10,02,08,47,42.00
2007,10,02,08,48,41.80
2007,10,02,08,49,40.70
2007,10,02,08,50,42.00
2007,10,02,08,51,42.00
2007,10,02,08,52,42.00
2007,10,02,08,53,40.00
2007,10,02,08,54,40.40
2007,10,02,08,55,43.20
2007,10,02,08,56,46.00
2007,10,02,08,57,47.70
2007,10,02,08,58,50.60
2007,10,02,08,59,54.00
2007,10,02,09,00,58.90
2007,10,02,09,01,65.30
2007,10,02,09,02,73.20
2007,10,02,09,03,77.90
2007,10,02,09,04,82.80
2007,10,02,09,05,88.00
2007,10,02,09,06,88.60
2007,10,02,09,07,92.40
2007,10,02,09,08,95.90
2007,10,02,09,09,95.60
2007,10,02,09,10,91.50
2007,10,02,09,11,88.10
2007,10,02,09,12,83.80
2007,10,02,09,13,81.60
2007,10,02,09,14,79.00
2007,10,02,09,15,80.40
2007,10,02,09,16,81.00
2007,10,02,09,17,82.90
2007,10,02,09,18,81.00
2007,10,02,09,19,81.00
2007,10,02,09,20,82.80
2007,10,02,09,21,84.00
2007,10,02,09,22,84.00
2007,10,02,09,23,84.20
2007,10,02,09,24,86.90
2007,10,02,09,25,91.80
2007,10,02,09,26,96.80
2007,10,02,09,27,98.00
2007,10,02,09,28,92.40
2007,10,02,09,29,85.20
2007,10,02,09,30,79.80
2007,10,02,09,31,77.80
2007,10,02,09,32,81.20
2007,10,02,09,33,83.00
2007,10,02,09,34,92.40
2007,10,02,09,35,97.90
2007,10,02,09,36,100.00
2007,10,02,09,37,100.80
2007,10,02,09,38,102.00
2007,10,02,09,39,103.60
2007,10,02,09,40,104.00
2007,10,02,09,41,102.00
2007,10,02,09,42,102.60
2007,10,02,09,43,104.00
2007,10,02,09,44,104.60
2007,10,02,09,45,106.60
2007,10,02,09,46,107.10
2007,10,02,09,47,109.00
2007,10,02,09,48,109.80
2007,10,02,09,49,109.90
2007,10,02,09,50,107.60
2007,10,02,09,51,108.50
2007,10,02,09,52,115.70
2007,10,02,09,53,124.00
2007,10,02,09,54,128.00
2007,10,02,09,55,127.50
2007,10,02,09,56,124.20
2007,10,02,09,57,121.50
2007,10,02,09,58,123.20
2007,10,02,09,59,128.20
2007,10,02,10,00,132.80
2007,10,02,10,01,133.00
2007,10,02,10,02,132.00
2007,10,02,10,03,127.60
2007,10,02,10,04,124.80
2007,10,02,10,05,120.00
2007,10,02,10,06,113.10
2007,10,02,10,07,106.10
2007,10,02,10,08,101.40
2007,10,02,10,09,98.10
2007,10,02,10,10,96.80
2007,10,02,10,11,95.60
2007,10,02,10,12,98.40
2007,10,02,10,13,101.30
2007,10,02,10,14,103.40
2007,10,02,10,15,104.00
2007,10,02,10,16,103.70
2007,10,02,10,17,102.00
2007,10,02,10,18,101.10
2007,10,02,10,19,98.70
2007,10,02,10,20,99.40
2007,10,02,10,21,103.80
2007,10,02,10,22,111.00
2007,10,02,10,23,111.60
2007,10,02,10,24,113.00
2007,10,02,10,25,113.60
2007,10,02,10,26,114.00
2007,10,02,10,27,125.90
2007,10,02,10,28,134.00
2007,10,02,10,29,133.40
2007,10,02,10,30,133.00
2007,10,02,10,31,138.90
2007,10,02,10,32,148.50
2007,10,02,10,33,163.30
2007,10,02,10,34,172.90
2007,10,02,10,35,178.10
2007,10,02,10,36,183.50
2007,10,02,10,37,177.50
2007,10,02,10,38,164.30
2007,10,02,10,39,154.20
2007,10,02,10,40,144.90
2007,10,02,10,41,131.40
2007,10,02,10,42,125.80
2007,10,02,10,43,125.00
2007,10,02,10,44,121.00
2007,10,02,10,45,108.20
2007,10,02,10,46,93.40
2007,10,02,10,47,88.00
2007,10,02,10,48,83.70
2007,10,02,10,49,81.00
2007,10,02,10,50,81.00
2007,10,02,10,51,83.10
2007,10,02,10,52,85.00
2007,10,02,10,53,88.00
2007,10,02,10,54,96.20
2007,10,02,10,55,104.10
2007,10,02,10,56,106.90
2007,10,02,10,57,109.50
2007,10,02,10,58,114.80
2007,10,02,10,59,122.40
2007,10,02,11,00,123.90
2007,10,02,11,01,121.30
2007,10,02,11,02,116.00
2007,10,02,11,03,120.90
2007,10,02,11,04,128.60
2007,10,02,11,05,140.70
2007,10,02,11,06,147.20
2007,10,02,11,07,155.30
2007,10,02,11,08,169.40
2007,10,02,11,09,176.00
2007,10,02,11,10,178.10
2007,10,02,11,11,184.10
2007,10,02,11,12,185.70
2007,10,02,11,13,187.50
2007,10,02,11,14,189.90
2007,10,02,11,15,187.40
2007,10,02,11,16,185.00
2007,10,02,11,17,177.60
2007,10,02,11,18,168.10
2007,10,02,11,19,163.50
2007,10,02,11,20,162.10
2007,10,02,11,21,163.80
2007,10,02,11,22,174.30
2007,10,02,11,23,182.50
2007,10,02,11,24,183.70
2007,10,02,11,25,181.20
2007,10,02,11,26,183.00
2007,10,02,11,27,183.80
2007,10,02,11,28,188.90
2007,10,02,11,29,193.00
2007,10,02,11,30,197.60
2007,10,02,11,31,200.00
2007,10,02,11,32,200.20
2007,10,02,11,33,202.00
2007,10,02,11,34,200.60
2007,10,02,11,35,195.70
2007,10,02,11,36,187.40
2007,10,02,11,37,171.80
2007,10,02,11,38,181.40
2007,10,02,11,39,197.60
2007,10,02,11,40,199.00
2007,10,02,11,41,199.60
2007,10,02,11,42,196.50
2007,10,02,11,43,190.40
2007,10,02,11,44,182.10
2007,10,02,11,45,175.50
2007,10,02,11,46,171.00
2007,10,02,11,47,169.80
2007,10,02,11,48,164.10
2007,10,02,11,49,157.50
2007,10,02,11,50,147.80
2007,10,02,11,51,137.10
2007,10,02,11,52,128.00
2007,10,02,11,53,111.10
2007,10,02,11,54,104.80
2007,10,02,11,55,118.60
2007,10,02,11,56,120.30
2007,10,02,11,57,118.00
2007,10,02,11,58,121.70
2007,10,02,11,59,126.80
2007,10,02,12,00,129.80
2007,10,02,12,01,128.80
2007,10,02,12,02,144.80
2007,10,02,12,03,169.20
2007,10,02,12,04,183.00
2007,10,02,12,05,199.20
2007,10,02,12,06,208.20
2007,10,02,12,07,211.60
2007,10,02,12,08,216.00
2007,10,02,12,09,215.20
2007,10,02,12,10,209.90
2007,10,02,12,11,203.20
2007,10,02,12,12,205.20
2007,10,02,12,13,201.70
2007,10,02,12,14,199.70
2007,10,02,12,15,199.00
2007,10,02,12,16,197.90
2007,10,02,12,17,197.00
2007,10,02,12,18,193.20
2007,10,02,12,19,189.90
2007,10,02,12,20,188.00
2007,10,02,12,21,193.20
2007,10,02,12,22,204.50
2007,10,02,12,23,215.30
2007,10,02,12,24,220.00
2007,10,02,12,25,221.60
2007,10,02,12,26,224.30
2007,10,02,12,27,221.90
2007,10,02,12,28,219.20
2007,10,02,12,29,216.40
2007,10,02,12,30,216.00
2007,10,02,12,31,218.00
2007,10,02,12,32,228.90
2007,10,02,12,33,241.30
2007,10,02,12,34,249.00
2007,10,02,12,35,251.00
2007,10,02,12,36,257.30
2007,10,02,12,37,262.00
2007,10,02,12,38,265.70
2007,10,02,12,39,294.80
2007,10,02,12,40,347.10
2007,10,02,12,41,359.00
2007,10,02,12,42,359.00
2007,10,02,12,43,359.00
2007,10,02,12,44,359.00
2007,10,02,12,45,353.70
2007,10,02,12,46,373.70
2007,10,02,12,47,381.00
2007,10,02,12,48,359.10
2007,10,02,12,49,361.70
2007,10,02,12,50,391.10
2007,10,02,12,51,421.20
2007,10,02,12,52,441.00
2007,10,02,12,53,396.20
2007,10,02,12,54,379.70
2007,10,02,12,55,326.80
2007,10,02,12,56,300.20
2007,10,02,12,57,282.10
2007,10,02,12,58,274.10
2007,10,02,12,59,277.60
2007,10,02,13,00,267.00
2007,10,02,13,01,262.30
2007,10,02,13,02,247.50
2007,10,02,13,03,239.10
2007,10,02,13,04,225.30
2007,10,02,13,05,208.60
2007,10,02,13,06,189.50
2007,10,02,13,07,174.70
2007,10,02,13,08,162.90
2007,10,02,13,09,152.60
2007,10,02,13,10,144.60
2007,10,02,13,11,151.00
2007,10,02,13,12,168.80
2007,10,02,13,13,182.90
2007,10,02,13,14,192.60
2007,10,02,13,15,192.10
2007,10,02,13,16,177.60
2007,10,02,13,17,162.30
2007,10,02,13,18,148.20
2007,10,02,13,19,135.80
2007,10,02,13,20,127.50
2007,10,02,13,21,128.40
2007,10,02,13,22,133.50
2007,10,02,13,23,141.40
2007,10,02,13,24,146.00
2007,10,02,13,25,146.00
2007,10,02,13,26,141.90
2007,10,02,13,27,139.00
2007,10,02,13,28,150.20
2007,10,02,13,29,174.10
2007,10,02,13,30,193.50
2007,10,02,13,31,205.60
2007,10,02,13,32,216.90
2007,10,02,13,33,229.40
2007,10,02,13,34,232.00
2007,10,02,13,35,245.60
2007,10,02,13,36,243.00
2007,10,02,13,37,244.30
2007,10,02,13,38,246.00
2007,10,02,13,39,262.10
2007,10,02,13,40,269.00
2007,10,02,13,41,263.80
2007,10,02,13,42,252.90
2007,10,02,13,43,246.40
2007,10,02,13,44,242.10
2007,10,02,13,45,237.70
2007,10,02,13,46,234.40
2007,10,02,13,47,225.80
2007,10,02,13,48,217.00
2007,10,02,13,49,208.90
2007,10,02,13,50,211.00
2007,10,02,13,51,218.80
2007,10,02,13,52,219.60
2007,10,02,13,53,208.20
2007,10,02,13,54,193.10
2007,10,02,13,55,186.00
2007,10,02,13,56,190.20
2007,10,02,13,57,207.10
2007,10,02,13,58,218.20
2007,10,02,13,59,219.10
2007,10,02,14,00,219.70
2007,10,02,14,01,238.20
2007,10,02,14,02,267.40
2007,10,02,14,03,296.80
2007,10,02,14,04,325.10
2007,10,02,14,05,367.60
2007,10,02,14,06,377.90
2007,10,02,14,07,381.50
2007,10,02,14,08,376.00
2007,10,02,14,09,357.50
2007,10,02,14,10,314.40
2007,10,02,14,11,306.00
2007,10,02,14,12,327.80
2007,10,02,14,13,353.20
2007,10,02,14,14,331.20
2007,10,02,14,15,281.40
2007,10,02,14,16,280.70
2007,10,02,14,17,315.50
2007,10,02,14,18,301.40
2007,10,02,14,19,279.10
2007,10,02,14,20,266.30
2007,10,02,14,21,265.00
2007,10,02,14,22,258.60
2007,10,02,14,23,269.20
2007,10,02,14,24,286.10
2007,10,02,14,25,300.60
2007,10,02,14,26,310.10
2007,10,02,14,27,311.00
2007,10,02,14,28,326.20
2007,10,02,14,29,324.80
2007,10,02,14,30,327.50
2007,10,02,14,31,314.60
2007,10,02,14,32,285.90
2007,10,02,14,33,268.60
2007,10,02,14,34,261.30
2007,10,02,14,35,256.90
2007,10,02,14,36,255.00
2007,10,02,14,37,255.00
2007,10,02,14,38,255.00
2007,10,02,14,39,245.60
2007,10,02,14,40,236.90
2007,10,02,14,41,228.10
2007,10,02,14,42,222.90
2007,10,02,14,43,221.00
2007,10,02,14,44,218.40
2007,10,02,14,45,217.80
2007,10,02,14,46,212.80
2007,10,02,14,47,206.90
2007,10,02,14,48,201.60
2007,10,02,14,49,201.30
2007,10,02,14,50,200.10
2007,10,02,14,51,194.80
2007,10,02,14,52,193.00
2007,10,02,14,53,193.00
2007,10,02,14,54,183.50
2007,10,02,14,55,168.60
2007,10,02,14,56,163.00
2007,10,02,14,57,155.40
2007,10,02,14,58,148.70
2007,10,02,14,59,140.00
2007,10,02,15,00,130.70
2007,10,02,15,01,122.20
2007,10,02,15,02,116.00
2007,10,02,15,03,112.00
2007,10,02,15,04,107.00
2007,10,02,15,05,107.00
2007,10,02,15,06,102.30
2007,10,02,15,07,100.00
2007,10,02,15,08,98.30
2007,10,02,15,09,100.00
2007,10,02,15,10,101.40
2007,10,02,15,11,105.30
2007,10,02,15,12,109.70
2007,10,02,15,13,112.60
2007,10,02,15,14,113.80
2007,10,02,15,15,114.00
2007,10,02,15,16,114.70
2007,10,02,15,17,116.90
2007,10,02,15,18,119.40
2007,10,02,15,19,120.80
2007,10,02,15,20,125.00
2007,10,02,15,21,125.40
2007,10,02,15,22,126.20
2007,10,02,15,23,123.90
2007,10,02,15,24,121.10
2007,10,02,15,25,120.00
2007,10,02,15,26,118.00
2007,10,02,15,27,118.00
2007,10,02,15,28,112.90
2007,10,02,15,29,100.30
2007,10,02,15,30,103.10
2007,10,02,15,31,119.40
2007,10,02,15,32,134.10
2007,10,02,15,33,135.00
2007,10,02,15,34,133.90
2007,10,02,15,35,130.90
2007,10,02,15,36,128.50
2007,10,02,15,37,127.10
2007,10,02,15,38,122.60
2007,10,02,15,39,119.50
2007,10,02,15,40,116.40
2007,10,02,15,41,110.90
2007,10,02,15,42,105.20
2007,10,02,15,43,96.30
2007,10,02,15,44,89.90
2007,10,02,15,45,87.40
2007,10,02,15,46,86.00
2007,10,02,15,47,84.80
2007,10,02,15,48,83.20
2007,10,02,15,49,79.00
2007,10,02,15,50,77.00
2007,10,02,15,51,77.00
2007,10,02,15,52,78.90
2007,10,02,15,53,81.00
2007,10,02,15,54,81.00
2007,10,02,15,55,78.80
2007,10,02,15,56,75.30
2007,10,02,15,57,71.10
2007,10,02,15,58,68.00
2007,10,02,15,59,65.60
2007,10,02,16,00,65.00
2007,10,02,16,01,66.90
2007,10,02,16,02,69.20
2007,10,02,16,03,70.80
2007,10,02,16,04,70.90
2007,10,02,16,05,69.40
2007,10,02,16,06,67.20
2007,10,02,16,07,65.00
2007,10,02,16,08,64.50
2007,10,02,16,09,63.00
2007,10,02,16,10,62.40
2007,10,02,16,11,62.00
2007,10,02,16,12,60.40
2007,10,02,16,13,58.00
2007,10,02,16,14,58.60
2007,10,02,16,15,60.80
2007,10,02,16,16,62.50
2007,10,02,16,17,66.10
2007,10,02,16,18,71.70
2007,10,02,16,19,78.70
2007,10,02,16,20,83.10
2007,10,02,16,21,95.40
2007,10,02,16,22,100.20
2007,10,02,16,23,106.10
2007,10,02,16,24,113.60
2007,10,02,16,25,120.80
2007,10,02,16,26,129.10
2007,10,02,16,27,134.00
2007,10,02,16,28,142.20
2007,10,02,16,29,154.80
2007,10,02,16,30,160.00
2007,10,02,16,31,163.00
2007,10,02,16,32,163.60
2007,10,02,16,33,166.80
2007,10,02,16,34,175.00
2007,10,02,16,35,178.80
2007,10,02,16,36,172.10
2007,10,02,16,37,168.60
2007,10,02,16,38,167.00
2007,10,02,16,39,173.40
2007,10,02,16,40,186.80
2007,10,02,16,41,194.40
2007,10,02,16,42,196.40
2007,10,02,16,43,186.00
2007,10,02,16,44,184.20
2007,10,02,16,45,175.00
2007,10,02,16,46,157.70
2007,10,02,16,47,169.80
2007,10,02,16,48,169.40
2007,10,02,16,49,172.40
2007,10,02,16,50,164.00
2007,10,02,16,51,138.00
2007,10,02,16,52,133.30
2007,10,02,16,53,134.80
2007,10,02,16,54,136.60
2007,10,02,16,55,149.60
2007,10,02,16,56,152.80
2007,10,02,16,57,150.90
2007,10,02,16,58,148.00
2007,10,02,16,59,144.20
2007,10,02,17,00,144.60
2007,10,02,17,01,152.20
2007,10,02,17,02,143.60
2007,10,02,17,03,123.00
2007,10,02,17,04,123.00
2007,10,02,17,05,123.00
2007,10,02,17,06,114.30
2007,10,02,17,07,116.60
2007,10,02,17,08,119.20
2007,10,02,17,09,122.30
2007,10,02,17,10,124.60
2007,10,02,17,11,123.00
2007,10,02,17,12,133.40
2007,10,02,17,13,150.90
2007,10,02,17,14,137.00
2007,10,02,17,15,118.10
2007,10,02,17,16,109.90
2007,10,02,17,17,106.20
2007,10,02,17,18,119.60
2007,10,02,17,19,128.80
2007,10,02,17,20,136.50
2007,10,02,17,21,148.40